Date,TemperatureHighF,TemperatureAvgF,TemperatureLowF,DewpointHighF,DewpointAvgF,DewpointLowF,HumidityHigh,HumidityAvg,HumidityLow,PressureMaxIn,PressureMinIn,WindSpeedMaxMPH,WindSpeedAvgMPH,GustSpeedMaxMPH,PrecipitationSumIn
2013-2-1,73,62,53,57,50,40,77,64,54,30.27,30.16,3,0,11,0.00
2013-2-2,74,64,55,55,50,38,77,61,47,30.27,30.13,3,0,9,0.00
2013-2-3,75,64,56,54,52,42,88,68,33,30.17,30.08,2,0,7,0.00
2013-2-4,74,63,50,56,49,41,82,62,37,30.15,30.03,3,0,9,0.00
2013-2-5,77,66,56,65,59,53,91,80,62,30.07,30.01,2,0,10,0.00
2013-2-6,78,71,62,68,64,61,96,80,64,30.11,30.03,2,0,10,0.00
2013-2-7,79,74,70,70,66,64,81,75,69,30.09,29.94,3,1,10,0.00
2013-2-8,83,76,70,71,67,61,92,75,55,30.03,29.91,7,2,13,0.00
2013-2-9,79,73,68,68,64,61,92,75,64,30.18,30.03,6,2,14,0.00
2013-2-10,74,71,70,65,63,61,81,74,70,30.27,30.16,6,2,16,0.00
2013-2-11,74,73,71,67,65,62,81,77,72,30.20,30.11,3,1,12,0.00
2013-2-12,75,74,72,71,69,66,90,85,78,30.13,29.98,4,1,14,0.00
2013-2-13,81,76,70,75,71,68,96,86,77,30.02,29.90,7,2,21,0.00
2013-2-14,77,70,63,72,68,62,97,93,83,30.01,29.86,7,0,18,1.82
2013-2-15,66,65,63,65,64,62,98,97,96,30.00,29.96,1,0,7,1.85
2013-2-16,73,68,63,64,60,50,97,78,49,29.95,29.89,9,3,23,0.04
2013-2-17,53,53,53,43,42,40,69,66,62,30.09,30.09,2,1,9,0.01
2013-2-18,67,67,66,57,56,53,71,67,61,30.24,30.23,4,2,10,0.00
2013-2-26,82,79,77,75,73,71,86,81,75,29.90,29.87,7,4,21,0.00
2013-2-27,77,70,63,74,66,62,97,87,65,29.97,29.87,6,1,11,0.84
2013-2-28,70,64,59,64,54,46,97,71,43,30.01,29.91,4,0,9,0.39